Alice Springs, Australia

5:27 PM ACST on December 10, 2019 (GMT +0930)
Alice Springs

Weather History for YBAS - August, 2019

Change the Weather History Date:

Monday, August 5, 2019

  Actual Average Record
Temperature  
Mean Temperature 56 °F -  
Max Temperature 74 °F 73 °F 80 °F (2002)
Min Temperature 37 °F 44 °F 28 °F (2016)
Degree Days  
Heating Degree Days 10    
Growing Degree Days 6 (Base 50)    
Moisture  
Dew Point 27 °F    
Average Humidity 32    
Maximum Humidity 61    
Minimum Humidity 10    
Precipitation  
Precipitation 0.00 in 0.02 in - ()
Sea Level Pressure  
Sea Level Pressure 30.19 in    
Wind  
Wind Speed 4 mph ()    
Max Wind Speed 15 mph    
Max Gust Speed -    
Visibility 6.2 miles    
Events      
Averages and records for this station are not official NWS values.
T = Trace of Precipitation, MM = Missing Value Source: Averaged Metar Reports

Daily Weather History Graph

Daily Weather History Graph

Search for Another Location

Airport or City:

Astronomy

Aug. 05, 2019 Rise Set
Actual Time 7:07 AM ACST 6:13 PM ACST
Civil Twilight 6:44 AM ACST 6:36 PM ACST
Nautical Twilight 6:17 AM ACST 7:04 PM ACST
Astronomical Twilight 5:50 AM ACST 7:30 PM ACST
Moon 10:18 AM ACST (8/5) 10:41 PM ACST (8/5)
Length of Visible Light 11h 52m
Length of Day
11h 05m
Waxing Crescent, 22% of the Moon is Illuminated
Aug 5
Waxing Crescent
Aug 8
First Quarter
Aug 15
Full
Aug 24
Last Quarter
Aug 30
New

Hourly Weather History & Observations

Time (ACST) Temp. Windchill Dew Point Humidity Pressure Visibility Wind Dir Wind Speed Gust Speed Precip Events Conditions
12:00 AM 47 °F - 27 °F 33% 30.24 in - WNW 3.5 mph - -   Clear
12:00 AM 48.2 °F - 26.6 °F 43% 30.24 in 6.2 mi WNW 3.5 mph - N/A   Unknown
12:30 AM 47 °F - 28 °F 35% 30.24 in - SSW 4.6 mph - -  
12:30 AM 46.4 °F 44.3 °F 28.4 °F 50% 30.24 in 6.2 mi SSW 4.6 mph - N/A   Unknown
1:00 AM 46.4 °F 44.3 °F 26.6 °F 46% 30.24 in 6.2 mi NW 4.6 mph - N/A   Unknown
1:30 AM 44.6 °F 43.1 °F 28.4 °F 53% 30.24 in 6.2 mi NW 3.5 mph - N/A   Unknown
2:00 AM 44.6 °F - 28.4 °F 53% 30.24 in 6.2 mi Calm Calm - N/A   Unknown
2:30 AM 43 °F - 28 °F 42% 30.22 in - NNW 1.2 mph - -  
2:30 AM 42.8 °F - 28.4 °F 57% 30.24 in 6.2 mi NNW 1.2 mph - N/A   Unknown
3:00 AM 42 °F - 27 °F 42% 30.22 in - WNW 1.2 mph - -   Clear
3:00 AM 42.8 °F - 26.6 °F 53% 30.24 in 6.2 mi WNW 1.2 mph - N/A   Unknown
3:30 AM 41 °F - 25 °F 40% 30.22 in - Calm Calm - -  
3:30 AM 41.0 °F - 24.8 °F 53% 30.24 in 6.2 mi Calm Calm - N/A   Unknown
4:00 AM 41.0 °F - 26.6 °F 57% 30.24 in 6.2 mi Calm Calm - N/A   Unknown
4:30 AM 41.0 °F - 28.4 °F 61% 30.21 in 6.2 mi Calm Calm - N/A   Unknown
5:00 AM 39.2 °F - 24.8 °F 56% 30.21 in 6.2 mi Calm Calm - N/A   Unknown
5:30 AM 39 °F - 24 °F 42% 30.21 in - Calm Calm - -  
5:30 AM 39.2 °F - 24.8 °F 56% 30.21 in 6.2 mi Calm Calm - N/A   Unknown
6:00 AM 39 °F - 26 °F 46% 30.21 in - South 3.5 mph - -   Clear
6:00 AM 39.2 °F 37.0 °F 24.8 °F 56% 30.21 in 6.2 mi South 3.5 mph - N/A   Unknown
6:30 AM 38 °F - 24 °F 45% 30.22 in - South 1.2 mph - -  
6:30 AM 37.4 °F - 24.8 °F 60% 30.24 in 6.2 mi South 1.2 mph - N/A   Unknown
7:00 AM 37.4 °F - 24.8 °F 60% 30.24 in 6.2 mi SSW 2.3 mph - N/A   Unknown
7:30 AM 39.2 °F - 24.8 °F 56% 30.24 in 6.2 mi Calm Calm - N/A   Unknown
8:00 AM 44.6 °F - 26.6 °F 49% 30.24 in 6.2 mi Calm Calm - N/A   Unknown
8:30 AM 48 °F - 28 °F 32% 30.25 in - Calm Calm - -  
8:30 AM 48.2 °F - 26.6 °F 43% 30.24 in 6.2 mi Calm Calm - N/A   Unknown
9:00 AM 53 °F - 28 °F 25% 30.25 in - East 6.9 mph - -   Clear
9:00 AM 53.6 °F - 28.4 °F 38% 30.27 in 6.2 mi East 6.9 mph - N/A   Unknown
9:18 AM 62.6 °F - 30.2 °F 30% 30.27 in 6.2 mi ENE 10.4 mph - N/A   Unknown
9:30 AM 63 °F - 28 °F 16% 30.25 in - East 12.7 mph - -  
9:30 AM 62.6 °F - 28.4 °F 27% 30.27 in 6.2 mi East 12.7 mph - N/A   Unknown
10:00 AM 64.4 °F - 28.4 °F 26% 30.27 in 6.2 mi East 15.0 mph - N/A   Unknown
10:30 AM 66.2 °F - 28.4 °F 24% 30.24 in 6.2 mi ENE 15.0 mph - N/A   Unknown
11:00 AM 66.2 °F - 26.6 °F 23% 30.24 in 6.2 mi ENE 13.8 mph - N/A   Unknown
11:30 AM 69 °F - 28 °F 12% 30.22 in - East 13.8 mph - -  
11:30 AM 68.0 °F - 28.4 °F 23% 30.24 in 6.2 mi East 13.8 mph - N/A   Unknown
12:00 PM 70 °F - 29 °F 12% 30.20 in - East 11.5 mph - -   Clear
12:00 PM 69.8 °F - 30.2 °F 23% 30.21 in 6.2 mi East 11.5 mph - N/A   Unknown
12:30 PM 70 °F - 29 °F 12% 30.18 in - ESE 6.9 mph - -  
12:30 PM 69.8 °F - 30.2 °F 23% 30.18 in 6.2 mi ESE 6.9 mph - N/A   Unknown
1:00 PM 71.6 °F - 30.2 °F 22% 30.18 in 6.2 mi East 9.2 mph - N/A   Unknown
1:30 PM 71.6 °F - 28.4 °F 20% 30.15 in 6.2 mi East 8.1 mph - N/A   Unknown
2:00 PM 71.6 °F - 28.4 °F 20% 30.12 in 6.2 mi NE 9.2 mph - N/A   Unknown
2:30 PM 73 °F - 29 °F 11% 30.11 in - NE 6.9 mph - -  
2:30 PM 73.4 °F - 30.2 °F 20% 30.12 in 6.2 mi NE 6.9 mph - N/A   Unknown
3:00 PM 74 °F - 29 °F 10% 30.11 in - NE 8.1 mph - -   Clear
3:00 PM 73.4 °F - 28.4 °F 19% 30.12 in 6.2 mi NE 8.1 mph - N/A   Unknown
3:30 PM 73 °F - 29 °F 10% 30.10 in - ENE 5.8 mph - -  
3:30 PM 73.4 °F - 28.4 °F 19% 30.12 in 6.2 mi ENE 5.8 mph - N/A   Unknown
4:00 PM 73.4 °F - 28.4 °F 19% 30.09 in 6.2 mi NNE 6.9 mph - N/A   Unknown
4:30 PM 73.4 °F - 28.4 °F 19% 30.09 in 6.2 mi ESE 5.8 mph - N/A   Unknown
5:00 PM 73.4 °F - 28.4 °F 19% 30.12 in 6.2 mi SSE 8.1 mph - N/A   Unknown
5:30 PM 72 °F - 29 °F 11% 30.10 in - East 8.1 mph - -  
5:30 PM 71.6 °F - 28.4 °F 20% 30.12 in 6.2 mi East 8.1 mph - N/A   Unknown
6:00 PM 70 °F - 27 °F 11% 30.10 in - East 8.1 mph - -   Clear
6:00 PM 69.8 °F - 26.6 °F 20% 30.12 in 6.2 mi East 8.1 mph - N/A   Unknown
6:30 PM 67 °F - 28 °F 13% 30.11 in - ESE 8.1 mph - -  
6:30 PM 66.2 °F - 28.4 °F 24% 30.12 in 6.2 mi ESE 8.1 mph - N/A   Unknown
7:00 PM 66.2 °F - 28.4 °F 24% 30.12 in 6.2 mi East 9.2 mph - N/A   Unknown
7:30 PM 62.6 °F - 26.6 °F 26% 30.12 in 6.2 mi East 6.9 mph - N/A   Unknown
8:00 PM 62.6 °F - 26.6 °F 26% 30.15 in 6.2 mi East 5.8 mph - N/A   Unknown
8:30 PM 60 °F - 28 °F 18% 30.15 in - NE 4.6 mph - -  
8:30 PM 59.0 °F - 26.6 °F 29% 30.15 in 6.2 mi NE 4.6 mph - N/A   Unknown
9:00 PM 58 °F - 26 °F 18% 30.15 in - ENE 8.1 mph - -   Clear
9:00 PM 57.2 °F - 26.6 °F 31% 30.15 in 6.2 mi ENE 8.1 mph - N/A   Unknown
9:30 PM 57 °F - 26 °F 19% 30.15 in - ENE 9.2 mph - -  
9:30 PM 57.2 °F - 26.6 °F 31% 30.15 in 6.2 mi ENE 9.2 mph - N/A   Unknown
10:00 PM 55.4 °F - 26.6 °F 33% 30.15 in 6.2 mi NNE 4.6 mph - N/A   Unknown
10:30 PM 57.2 °F - 28.4 °F 33% 30.15 in 6.2 mi ENE 6.9 mph - N/A   Unknown
11:00 PM 53.6 °F - 24.8 °F 33% 30.15 in 6.2 mi ENE 6.9 mph - N/A   Unknown
11:30 PM 52 °F - 27 °F 25% 30.14 in - ENE 2.3 mph - -  
11:30 PM 51.8 °F - 26.6 °F 38% 30.15 in 6.2 mi ENE 2.3 mph - N/A   Unknown